Regional Weather Roundup
Issued by NWS

Home | Current Version | Previous Version | Text Only | Print | Product List | Glossary On
Versions: 1 2 3 4 5 6 7 8 9 10 11 12 13 14 15 16 17 18 19 20 21 22 23 24 25 26 27 28 29 30 31 32 33 34 35 36 37 38 39 40 41 42 43 44 45 46 47 48 49 50
000
ASUS44 KFWD 261201
RWRTX
NORTH TEXAS HOURLY WEATHER ROUNDUP
NATIONAL WEATHER SERVICE FORT WORTH TX
700 AM CDT SAT JUL 26 2014

NOTE: "FAIR" INDICATES FEW OR NO CLOUDS BELOW 12,000 FEET WITH NO
SIGNIFICANT WEATHER AND/OR OBSTRUCTIONS TO VISIBILITY.

TXZ118-119-261300-
DALLAS/FORT WORTH METROPLEX

CITY           SKY/WX    TMP DP  RH WIND       PRES   REMARKS
DFW AIRPORT    PTCLDY    79  70  74 S9        29.98R
6HR MIN TEMP:  78; 6HR MAX TEMP:  85;

DALLAS LOVE    PTCLDY    81  70  69 S7        29.99R
6HR MIN TEMP:  80; 6HR MAX TEMP:  85;

FTW MEACHAM    CLEAR     79  70  74 S8        29.98R
6HR MIN TEMP:  79; 6HR MAX TEMP:  85;

DAL-EXECUTIVE  CLEAR     78  70  76 VRB5      29.99R
6HR MIN TEMP:  78; 6HR MAX TEMP:  84;

FTW-ALLIANCE   PTCLDY    77  70  79 S5        29.98R
6HR MIN TEMP:  77; 6HR MAX TEMP:  82;

FTW-NAS-JRB    PTCLDY    80  69  69 S7        30.03R
6HR MIN TEMP:  80; 6HR MAX TEMP:  88;

FTW-SPINKS     CLEAR     99  63  30 S6        30.00S HX 100
ARLINGTON      CLEAR     76  70  82 S3        29.99R
6HR MIN TEMP:  76; 6HR MAX TEMP:  83;

MESQUITE       CLEAR     72  70  94 SE3       30.00R
LANCASTER      CLEAR     73  68  85 CALM      30.01R
6HR MIN TEMP:  73; 6HR MAX TEMP:  80;

$$

TXZ091>094-102>105-117-120-121-131>134-261300-
NORTH CENTRAL TEXAS

CITY           SKY/WX    TMP DP  RH WIND       PRES   REMARKS
SHRMAN/DENISON CLEAR     77  69  77 S8        30.00R
6HR MIN TEMP:  76; 6HR MAX TEMP:  83;

GAINESVILLE    CLEAR     73  69  87 S6        30.00R
6HR MIN TEMP:  72; 6HR MAX TEMP:  80;

BOWIE          CLEAR     72  69  91 CALM      29.99S
6HR MIN TEMP:  72; 6HR MAX TEMP:  80;

BRIDGEPORT     CLEAR     77  67  70 CALM      30.00R
6HR MIN TEMP:  77; 6HR MAX TEMP:  84;

DECATUR        CLEAR     77  68  72 S8        30.00R
6HR MIN TEMP:  77; 6HR MAX TEMP:  83;

DENTON         CLEAR     76  70  82 S5        29.98R
6HR MIN TEMP:  76; 6HR MAX TEMP:  82;

MCKINNEY       CLEAR     74  70  87 S5        29.99R
6HR MIN TEMP:  73; 6HR MAX TEMP:  83;

GREENVILLE     CLEAR     73  70  88 S3        30.01R
ROCKWALL       CLEAR     74  71  90 S3        29.99R
6HR MIN TEMP:  74; 6HR MAX TEMP:  80;

TERRELL        CLEAR     75  73  93 S3        30.01R
6HR MIN TEMP:  75; 6HR MAX TEMP:  80;

WAXAHACHIE     CLEAR     73  70  88 CALM      30.01R
6HR MIN TEMP:  73; 6HR MAX TEMP:  78;

CLEBURNE       CLEAR     75  73  94 S6        30.02R
GRANBURY       CLEAR     80  70  71 SE3       30.01R
6HR MIN TEMP:  80; 6HR MAX TEMP:  85;

$$

TXZ083>090-098>101-113>116-127>130-139>142-154-155-261300-
WESTERN NORTH TEXAS

CITY           SKY/WX    TMP DP  RH WIND       PRES   REMARKS
WICHITA FALLS  CLEAR     75  67  76 S9G23     29.95R
6HR MIN TEMP:  74; 6HR MAX TEMP:  81;

WF-KICKAPOO    CLEAR     75  66  75 S6        29.97R
6HR MIN TEMP:  74; 6HR MAX TEMP:  79;

VERNON         CLEAR     76  64  66 S7        29.96R
ABILENE        CLEAR     77  65  66 S9        30.01R
6HR MIN TEMP:  77; 6HR MAX TEMP:  83;

ABILENE-DYESS  CLEAR     77  65  65 S13       29.99R
6HR MIN TEMP:  77; 6HR MAX TEMP:  81;

BRECKENRIDGE   CLEAR     78  65  63 S9        29.98S
6HR MIN TEMP:  78; 6HR MAX TEMP:  86;

GRAHAM         CLEAR     77  66  69 SE5       29.98R
6HR MIN TEMP:  77; 6HR MAX TEMP:  84;

MINERAL WELLS  CLEAR     73  69  87 SE7       29.98R
6HR MIN TEMP:  73; 6HR MAX TEMP:  82;

STEPHENVILLE   CLEAR     73  68  85 S3        30.04R
6HR MIN TEMP:  73; 6HR MAX TEMP:  81;

COMANCHE       CLEAR     75  67  77 S9        30.01R
6HR MIN TEMP:  75; 6HR MAX TEMP:  81;

BROWNWOOD      CLEAR     72  66  83 SE5       30.02S
COLEMAN        CLEAR     73  65  76 CALM      30.03R
6HR MIN TEMP:  73; 6HR MAX TEMP:  81;

BRADY          CLEAR     73  66  78 S5        30.03R
$$

TXZ143>147-156>162-174-175-261300-
CENTRAL TEXAS

CITY           SKY/WX    TMP DP  RH WIND       PRES   REMARKS
WACO           PTCLDY    76  72  87 S8        30.00R
6HR MIN TEMP:  76; 6HR MAX TEMP:  83;

WACO-TSTC      CLEAR     73  72  94 SE5       30.00
WACO-MCGREGOR  CLEAR     75  68  78 S8        30.02R
6HR MIN TEMP:  75; 6HR MAX TEMP:  81;

CORSICANA      CLEAR     75  71  87 S7        30.02R
6HR MIN TEMP:  75; 6HR MAX TEMP:  80;

MEXIA          PTCLDY    73  72  96 S3        30.00R
6HR MIN TEMP:  73; 6HR MAX TEMP:  76;

CAMERON        CLEAR     76  74  95 S7        30.01R
6HR MIN TEMP:  76; 6HR MAX TEMP:  81;

TEMPLE         CLEAR     73  68  83 S7        30.01R
6HR MIN TEMP:  73; 6HR MAX TEMP:  81;

KILLEEN        PTCLDY    73  72  94 S7        30.01R
KILLEEN-SKYLRK CLEAR     75  66  73 S6        30.01R
6HR MIN TEMP:  75; 6HR MAX TEMP:  81;

FORT HOOD      CLEAR     77  72  84 SE5       30.01R
6HR MIN TEMP:  77; 6HR MAX TEMP:  83;

GATESVILLE     CLEAR     75  72  88 S3        30.03R
HAMILTON       CLEAR     73  72  95 S12       30.02S
6HR MIN TEMP:  73; 6HR MAX TEMP:  79;

LAMPASAS       CLEAR     76  72  88 CALM      30.02R
6HR MIN TEMP:  76; 6HR MAX TEMP:  81;

$$

TXZ095>097-106>112-122>126-135>138-148>153-164>167-261300-
EAST TEXAS

CITY           SKY/WX    TMP DP  RH WIND       PRES   REMARKS
PARIS          CLEAR     73  66  78 S6        30.01R
6HR MIN TEMP:  73; 6HR MAX TEMP:  75;

SULPHUR SPRNGS CLEAR     76  72  86 S7        30.03R
6HR MIN TEMP:  76; 6HR MAX TEMP:  80;

CLARKSVILLE    PTCLDY    74  73  95 CALM      30.00S
6HR MIN TEMP:  74; 6HR MAX TEMP:  79;

MOUNT PLEASANT CLEAR     73  72  95 CALM      30.03R
6HR MIN TEMP:  73; 6HR MAX TEMP:  76;

GILMER         CLEAR     75  75 100 CALM      30.03R FOG
MINEOLA        CLEAR     75  73  94 S3        30.02R
TYLER          CLEAR     76  72  87 S5        30.02R
6HR MIN TEMP:  76; 6HR MAX TEMP:  78;

LONGVIEW       CLEAR     76  72  87 SW5       30.02R
6HR MIN TEMP:  76; 6HR MAX TEMP:  77;

MARSHALL       CLEAR     74  72  92 CALM      30.04R
6HR MIN TEMP:  74; 6HR MAX TEMP:  78;

ATHENS         CLEAR     70  70 100 CALM      30.01R FOG
JACKSONVILLE   CLEAR     75  74  95 SW5       30.06R FOG
HENDERSON      CLEAR     74  73  98 CALM      30.04R
6HR MIN TEMP:  74; 6HR MAX TEMP:  76;

NACOGDOCHES    CLEAR     73  73 100 CALM      30.04R
6HR MIN TEMP:  72; 6HR MAX TEMP:  77;

LUFKIN         CLEAR     77  73  87 CALM      30.03R FOG
6HR MIN TEMP:  77; 6HR MAX TEMP:  81;

$$

SUPPLEMENTAL OBSERVATIONS (CENTRAL)

CITY           SKY/WX    TMP DP  RH WIND       PRES   REMARKS
$$

SUPPLEMENTAL OBSERVATIONS (WEST)

CITY           SKY/WX    TMP DP  RH WIND       PRES   REMARKS
$$

SUPPLEMENTAL OBSERVATIONS (EAST)

CITY           SKY/WX    TMP DP  RH WIND       PRES   REMARKS
$$

SUPPLEMENTAL OBSERVATIONS ARE A COLLECTION OF AUTOMATED INSTRUMENTS
THAT ARE MAINTAINED BY A VARIETY OF FEDERAL AND STATE AGENCIES.
CERTAIN ELEMENTS...SUCH AS HUMIDITY VALUES AND SUSTAINED WIND
SPEEDS...MAY BE APPROXIMATED.




USA.gov is the U.S. government's official web portal to all federal, state and local government web resources and services.